Location: Baili�vre
(50.0696°N, 4.2409°E)
Time: 16:32:37
(UTC+00:00)

ERBS - Pass Details

Date: 08 August 2020
Orbit: 412 x 421 km, 57.0° (Epoch: 18 September)

Event Time Altitude Azimuth Distance (km) Brightness Sun altitude
Rises 20:31:32 0° 256° (WSW) 2,351 6.6 -11.2°
Reaches altitude 10° 20:33:41 10° 263° (W) 1,489 5.6 -11.4°
Maximum altitude 20:36:52 42° 337° (NNW) 601 3.6 -11.8°
Drops below altitude 10° 20:40:04 10° 50° (NE) 1,491 5.0 -12.2°
Sets 20:42:13 0° 58° (ENE) 2,355 5.9 -12.4°
